{"data":{"norad_id":42837,"epoch":"2026-09-19T22:46:12.476064Z","epoch_age_seconds":62086,"freshness":"FRESH","line1":"1 42837U 17042N   26262.94875551  .00012046  00000+0  36770-3 0  9998","line2":"2 42837  97.3865  83.3660 0008712  33.6442 326.5353 15.34026769502906","mean_motion":15.34026769,"eccentricity":0.0008712,"inclination_deg":97.3865,"raan_deg":83.366,"arg_perigee_deg":33.6442,"mean_anomaly_deg":326.5353,"bstar":0.0003677,"rev_number":50290,"period_min":93.870591380795,"perigee_km":457.85207965031,"apogee_km":469.77349295797,"semimajor_km":6841.9497863041,"source":"CELESTRAK","updated_at":"2026-09-20T09:00:34.867278Z"}}